Location: Oklahoma City
(35.4680°N, 97.5160°W)
Time: 02:14:53
(UTC-05:00)

ISS - All Passes

Search period start: 18 April 2015 00:00
Search period end: 28 April 2015 00:00
Orbit: 395 x 404 km, 51.6° (Epoch: 17 April)

Date Brightness Start Highest point End Pass type
(mag) Time Alt. Az. Time Alt. Az. Time Alt. Az.
18 Apr - 15:25:39 10° SW 15:28:54 75° NW 15:32:11 10° NE daylight
18 Apr - 17:04:34 10° NW 17:05:48 11° NNW 17:06:57 10° N daylight
18 Apr - 21:55:42 10° NNW 21:58:38 30° NE 22:01:34 10° E visible
18 Apr - 23:32:22 10° W 23:34:53 21° SW 23:37:21 10° S visible
19 Apr - 14:31:58 10° SSW 14:35:06 46° SE 14:38:15 10° ENE daylight
19 Apr - 16:09:18 10° WNW 16:11:39 18° NNW 16:13:59 10° NNE daylight
19 Apr - 21:02:17 10° NNW 21:04:34 18° NNE 21:06:54 10° ENE visible
19 Apr - 22:38:00 10° WNW 22:41:08 46° SW 22:44:14 10° SSE visible
20 Apr - 13:38:50 10° S 13:41:19 21° SE 13:43:52 10° E daylight
20 Apr - 15:14:37 10° W 15:17:35 31° NW 15:20:32 10° NNE daylight
20 Apr - 20:09:16 10° N 20:10:23 11° NNE 20:11:33 10° NE daylight
20 Apr - 21:44:01 10° NW 21:47:16 74° NE 21:50:30 10° SE visible
21 Apr - 14:20:19 10° WSW 14:23:33 64° NW 14:26:48 10° NE daylight
21 Apr - 15:59:38 10° NW 16:00:29 11° NNW 16:01:16 10° N daylight
21 Apr - 20:50:15 10° NNW 20:53:15 34° NE 20:56:16 10° ESE visible
21 Apr - 22:27:07 10° W 22:29:27 18° SW 22:31:43 10° S visible
22 Apr - 13:26:25 10° SSW 13:29:35 54° SE 13:32:48 10° ENE daylight
22 Apr - 15:04:00 10° WNW 15:06:12 16° NNW 15:08:22 10° NNE daylight
22 Apr - 19:56:40 10° NNW 19:59:05 19° NNE 20:01:33 10° E daylight
22 Apr - 21:32:31 10° WNW 21:35:36 40° SW 21:38:37 10° SSE visible
23 Apr - 12:33:03 10° S 12:35:41 23° SE 12:38:22 10° ENE daylight
23 Apr - 14:09:06 10° W 14:11:58 28° NW 14:14:50 10° NNE daylight
23 Apr - 19:03:24 10° N 19:04:47 12° NNE 19:06:14 10° NE daylight
23 Apr - 20:38:21 10° NW 20:41:36 85° NE 20:44:51 10° SE visible
24 Apr - 11:41:00 10° SE 11:41:46 11° SE 11:42:42 10° ESE daylight
24 Apr - 13:14:37 10° WSW 13:17:48 56° NW 13:21:01 10° NE daylight
24 Apr - 19:44:25 10° NNW 19:47:30 38° NE 19:50:32 10° ESE daylight
24 Apr - 21:21:30 10° W 21:23:38 16° SW 21:25:41 10° SSW visible
25 Apr - 12:20:31 10° SW 12:23:42 62° SE 12:26:56 10° NE daylight
25 Apr - 13:58:18 10° WNW 14:00:21 15° NNW 14:02:22 10° N daylight
25 Apr - 18:50:40 10° NNW 18:53:13 21° NNE 18:55:47 10° E daylight
25 Apr - 20:26:39 10° WNW 20:29:39 35° SW 20:32:38 10° SSE daylight
26 Apr - 11:26:54 10° S 11:29:39 26° SE 11:32:28 10° ENE daylight
26 Apr - 13:03:12 10° W 13:05:59 25° NNW 13:08:46 10° NNE daylight
26 Apr - 17:57:12 10° N 17:58:48 13° NNE 18:00:27 10° NE daylight
26 Apr - 19:32:18 10° NW 19:35:34 85° SW 19:38:47 10° SE daylight
27 Apr - 10:34:19 10° SSE 10:35:38 12° SE 10:37:03 10° ESE daylight
27 Apr - 12:08:31 10° WSW 12:11:41 50° NW 12:14:51 10° NE daylight
27 Apr - 18:38:12 10° NW 18:41:20 42° NE 18:44:26 10° ESE daylight
27 Apr - 20:15:32 10° W 20:17:26 14° SW 20:19:14 10° SSW daylight
